Location: Blue Mountain Vista Observatory
(40.6992°N, 75.9422°W)
Time: 13:18:44
(UTC-05:00)

Amateur Radio Satellites - All Passes

Search period start: 04 December 2016 12:48
Search period end: 05 December 2016 12:48
Location: Blue Mountain Vista Observatory, 40.6992°N, 75.9422°W

Satellite Date Start Highest point End Downlink Frequencies (MHz)
Time Altitude Azimuth
BEESAT 3 04 Dec 12:54:17 12:56:15 13° 42° (NE) 12:58:13 437.485
AO-7 04 Dec 13:01:12 13:07:17 23° 53° (NE) 13:13:23 29.400- 29.500
CUBEBUG 1 04 Dec 13:08:05 13:11:05 18° 295° (WNW) 13:14:05 437.445
ITAMSAT 1 04 Dec 13:10:14 13:14:00 21° 63° (ENE) 13:17:46 435.822/435.867
VELOX 1 04 Dec 13:13:17 13:16:49 23° 293° (WNW) 13:20:20 145.980
BEESAT 2 04 Dec 13:19:27 13:21:01 12° 40° (NE) 13:22:34 435.950
Cosmos 2499 04 Dec 13:25:57 13:33:05 30° 277° (W) 13:39:50 435.465 / 435.565
DX 1 04 Dec 13:33:04 13:36:42 26° 292° (WNW) 13:40:18 434.975-435.025
UKube-1 04 Dec 13:44:06 13:47:41 26° 292° (WNW) 13:51:15 .
AUBIESAT-1 04 Dec 13:44:49 13:47:23 15° 95° (E) 13:49:53 437.475
RS-15 04 Dec 13:48:21 13:58:11 26° 20° (NNE) 14:07:56 29.354- 29.394
TISAT 1 04 Dec 13:53:32 13:57:45 68° 286° (WNW) 14:01:56 437.305
M-CUBED/EXP-1 PRIME 04 Dec 13:54:26 13:58:11 24° 99° (E) 14:01:50 437.505
SPROUT 04 Dec 14:03:31 14:04:10 10° 299° (WNW) 14:04:49 437.525
Gurwin Techsat 1B 04 Dec 14:05:05 14:09:47 32° 264° (W) 14:14:31 435.225
SWISSCUBE 04 Dec 14:27:24 14:32:04 54° 101° (E) 14:36:42 437.505
GONETS M04 04 Dec 14:27:26 14:31:19 14° 285° (WNW) 14:35:14
BEESAT 3 04 Dec 14:30:23 14:34:22 74° 241° (WSW) 14:38:19 437.485
BEESAT 04 Dec 14:31:40 14:36:20 53° 101° (E) 14:40:58 436.000
ITAMSAT 1 04 Dec 14:48:00 14:53:05 52° 260° (W) 14:58:11 435.822/435.867
AO-7 04 Dec 14:50:47 14:59:05 84° 252° (WSW) 15:07:28 29.400- 29.500
BEESAT 2 04 Dec 14:55:21 14:59:24 89° 231° (SW) 15:03:24 435.950
ITUPSAT 1 04 Dec 14:57:59 15:02:46 84° 284° (WNW) 15:07:31 437.325
KKS-1 04 Dec 15:04:13 15:05:16 11° 90° (E) 15:06:19 437.445
HORYU 2 04 Dec 15:16:21 15:18:17 13° 62° (ENE) 15:20:11 437.375
AUBIESAT-1 04 Dec 15:17:34 15:22:06 57° 292° (WNW) 15:26:28 437.475
M-CUBED/EXP-1 PRIME 04 Dec 15:28:22 15:32:42 37° 295° (WNW) 15:36:53 437.505
O/OREOS (USA 219) 04 Dec 15:32:05 15:35:52 26° 103° (ESE) 15:39:38 437.305
BRITE-PL 04 Dec 15:35:53 15:39:11 22° 66° (ENE) 15:42:38 437.365/2234.400
CUBESAT XI-V 04 Dec 15:53:37 15:55:57 14° 90° (E) 15:58:16 437.345
MOZHAYETS 4 04 Dec 15:54:16 15:58:51 84° 282° (WNW) 16:03:24
RS-15 04 Dec 16:01:47 16:14:03 61° 50° (NE) 16:25:56 29.354- 29.394
SWISSCUBE 04 Dec 16:06:26 16:09:25 17° 297° (WNW) 16:12:23 437.505
NOAA 18 04 Dec 16:07:20 16:08:06 10° 55° (NE) 16:08:53 137.9125
BEESAT 04 Dec 16:10:39 16:13:40 17° 297° (WNW) 16:16:40 436.000
CUTE-I 04 Dec 16:10:46 16:14:02 17° 61° (ENE) 16:17:17 437.470
Cosmos 2491 04 Dec 16:31:58 16:37:46 19° 62° (ENE) 16:43:31 435.465 / 435.565
Cubesat XI-IV 04 Dec 16:34:44 16:39:08 26° 65° (ENE) 16:43:33 437.490
KKS-1 04 Dec 16:37:48 16:42:16 69° 286° (WNW) 16:46:43 437.445
NOAA 15 04 Dec 16:37:59 16:42:32 31° 67° (ENE) 16:47:04 137.62
AO-7 04 Dec 16:48:18 16:52:57 16° 270° (W) 16:57:39 29.400- 29.500
STARS 04 Dec 16:48:48 16:53:14 72° 102° (ESE) 16:57:37 437.465
HORYU 2 04 Dec 16:49:46 16:54:15 68° 259° (W) 16:58:44 437.375
ISS 04 Dec 16:51:57 16:55:14 73° 141° (SE) 16:58:32 145.825
GOMX 1 04 Dec 16:57:38 17:02:05 67° 75° (ENE) 17:06:54 467.674
LilacSat-2 04 Dec 17:01:51 17:05:27 39° 73° (ENE) 17:09:03 437.200
AIST 2 04 Dec 17:06:26 17:10:38 57° 55° (NE) 17:14:47 435.215
O/OREOS (USA 219) 04 Dec 17:11:06 17:15:09 30° 300° (WNW) 17:19:11 437.305
HO-68 04 Dec 17:13:35 17:18:01 18° 54° (NE) 17:22:27 435.675
BRITE-PL 04 Dec 17:13:41 17:17:29 32° 265° (W) 17:21:31 437.365/2234.400
CINEMA 3 04 Dec 17:14:21 17:16:17 12° 60° (ENE) 17:18:13 145.822/145.860
DOVE 4 04 Dec 17:17:04 17:21:34 45° 71° (ENE) 17:26:21 437.250
CUBESAT XI-V 04 Dec 17:29:06 17:33:41 59° 286° (WNW) 17:38:16 437.345
NOAA 18 04 Dec 17:42:15 17:47:45 71° 73° (ENE) 17:53:18 137.9125
CUTE-I 04 Dec 17:48:07 17:53:28 69° 258° (WSW) 17:58:51 437.470
CUTE 1.7 + AOD 2 04 Dec 17:51:38 17:53:50 14° 65° (ENE) 17:56:02 437.475
CANX-2 04 Dec 18:07:53 18:11:17 24° 69° (ENE) 18:14:41 2200.000
Cubesat XI-IV 04 Dec 18:13:56 18:18:58 41° 262° (W) 18:24:03 437.490
RS-15 04 Dec 18:14:56 18:26:07 43° 253° (WSW) 18:36:58 29.354- 29.394
NOAA 15 04 Dec 18:17:33 18:22:12 33° 263° (W) 18:26:55 137.62
AAUSAT CUBESAT 2 04 Dec 18:24:50 18:25:52 11° 63° (ENE) 18:26:54 437.432
Cosmos 2491 04 Dec 18:27:05 18:35:52 90° 264° (W) 18:44:34 435.465 / 435.565
STARS 04 Dec 18:27:28 18:28:57 12° 299° (WNW) 18:30:26 437.465
ISS 04 Dec 18:29:26 18:32:02 21° 340° (NNW) 18:34:38 145.825
UWE-3 04 Dec 18:30:44 18:32:16 11° 62° (ENE) 18:33:47 435.000/436.395/437.385
SEEDS 04 Dec 18:36:42 18:40:18 29° 70° (ENE) 18:43:54 437.485
LilacSat-2 04 Dec 18:37:48 18:39:54 14° 268° (W) 18:42:00 437.200
GOMX 1 04 Dec 18:39:11 18:40:47 12° 273° (W) 18:42:24 467.674
AIST 2 04 Dec 18:46:30 18:48:36 14° 251° (WSW) 18:50:43 435.215
STRAND 1 04 Dec 18:47:15 18:51:46 31° 96° (E) 18:56:13 437.568
CINEMA 3 04 Dec 18:47:44 18:52:38 84° 260° (W) 18:57:41 145.822/145.860
COMPASS 1 04 Dec 18:50:32 18:54:01 27° 70° (ENE) 18:57:31 437.405
AIST 1 04 Dec 18:54:01 18:56:33 15° 86° (E) 18:59:06
YUBILEINY 04 Dec 18:54:09 19:02:38 60° 91° (E) 19:11:10 435.215
DOVE 4 04 Dec 18:56:07 18:59:31 19° 269° (W) 19:03:04 437.250
HO-68 04 Dec 18:57:34 19:04:44 88° 74° (ENE) 19:11:57 435.675
SO-50 04 Dec 19:05:07 19:07:10 13° 108° (ESE) 19:09:12 436.795
Cosmos 2504 04 Dec 19:10:39 19:18:02 38° 85° (E) 19:25:50 435.465 / 435.565
ZACube-1 04 Dec 19:13:46 19:17:01 20° 66° (ENE) 19:20:15 437.345
CUBEBUG 2 04 Dec 19:17:24 19:22:01 52° 73° (ENE) 19:26:38 437.445
CUSAT 1 04 Dec 19:19:44 19:20:54 11° 74° (ENE) 19:22:09 437.405
FUNcube-1 04 Dec 19:22:13 19:25:41 22° 67° (ENE) 19:29:07 145.935
CUTE 1.7 + AOD 2 04 Dec 19:25:07 19:29:14 51° 260° (W) 19:33:21 437.475
NOAA 18 04 Dec 19:25:50 19:28:55 15° 269° (W) 19:32:01 137.9125
CANX-2 04 Dec 19:43:23 19:47:01 28° 264° (W) 19:50:39 2200.000
PCSat 04 Dec 19:49:33 19:53:59 25° 48° (NE) 19:58:24 145.827
Oscar 11 04 Dec 19:54:18 19:58:24 43° 72° (ENE) 20:02:30 145.826/435.025
AAUSAT CUBESAT 2 04 Dec 19:56:42 20:00:47 65° 259° (W) 20:04:52 437.432
UWE-3 04 Dec 20:03:23 20:08:04 79° 258° (WSW) 20:12:43 435.000/436.395/437.385
ISS 04 Dec 20:07:59 20:09:29 12° 360° (N) 20:11:00 145.825
SEEDS 04 Dec 20:12:41 20:15:58 22° 266° (W) 20:19:16 437.485
COMPASS 1 04 Dec 20:26:13 20:29:32 23° 265° (W) 20:32:51 437.405
Cosmos 2491 04 Dec 20:26:18 20:31:22 17° 283° (WNW) 20:36:28 435.465 / 435.565
STRAND 1 04 Dec 20:26:25 20:30:52 31° 293° (WNW) 20:35:17 437.568
AIST 1 04 Dec 20:29:41 20:33:44 41° 282° (WNW) 20:37:52
SO-50 04 Dec 20:42:16 20:47:02 75° 303° (WNW) 20:51:46 436.795
ZACube-1 04 Dec 20:48:41 20:53:00 41° 262° (W) 20:57:18 437.345
HO-68 04 Dec 20:49:11 20:53:17 16° 271° (W) 20:57:24 435.675
YUBILEINY 04 Dec 20:52:36 20:59:56 30° 291° (WNW) 21:07:22 435.215
HUMSAT D 04 Dec 20:55:14 20:59:09 38° 72° (ENE) 21:03:03 437.325/437.525
CUBEBUG 2 04 Dec 20:55:58 20:58:54 16° 269° (W) 21:01:50 437.445
FUNcube-1 04 Dec 20:57:30 21:01:41 36° 263° (W) 21:05:51 145.935
CUSAT 1 04 Dec 20:59:16 21:02:42 45° 262° (W) 21:07:07 437.405
Cosmos 2504 04 Dec 21:03:14 21:11:10 48° 285° (WNW) 21:19:36 435.465 / 435.565
PRISM 04 Dec 21:04:44 21:08:50 55° 101° (E) 21:12:54 437.425
DELFI C3 04 Dec 21:09:30 21:13:24 71° 259° (WSW) 21:17:19 145.870
UNISAT 6 04 Dec 21:09:44 21:11:52 13° 90° (E) 21:13:59 437.425
DANDE 04 Dec 21:29:58 21:32:44 88° 267° (W) 21:36:03 436.750
Oscar 11 04 Dec 21:32:03 21:34:43 16° 268° (W) 21:37:24 145.826/435.025
PCSat 04 Dec 21:32:25 21:37:41 52° 247° (WSW) 21:42:55 145.827
TIGRISAT 04 Dec 21:38:59 21:42:41 26° 95° (E) 21:46:19 435.000
ANTELSAT 04 Dec 21:39:56 21:43:45 28° 96° (E) 21:47:29 437.575/2403.000
ESTCUBE 1 04 Dec 21:43:57 21:47:16 21° 66° (ENE) 21:50:35 437.505/2401.250
ISS 04 Dec 21:44:24 21:46:58 20° 20° (NNE) 21:49:32 145.825
AISAT 04 Dec 21:58:28 22:00:34 13° 62° (ENE) 22:02:39 437.250
SO-50 04 Dec 22:26:07 22:28:18 13° 323° (NW) 22:30:27 436.795
CUBEBUG 1 04 Dec 22:26:29 22:30:25 34° 70° (ENE) 22:34:23 437.445
HUMSAT D 04 Dec 22:32:06 22:34:53 17° 267° (W) 22:37:40 437.325/437.525
VELOX 1 04 Dec 22:33:31 22:37:17 28° 68° (ENE) 22:41:05 145.980
PRISM 04 Dec 22:41:41 22:43:38 13° 297° (WNW) 22:45:37 437.425
UNISAT 6 04 Dec 22:44:38 22:48:57 53° 287° (WNW) 22:53:08 437.425
POPSAT HIP 1 04 Dec 22:46:41 22:49:19 16° 92° (E) 22:51:56 437.405
JAS-2 04 Dec 22:47:16 22:51:42 28° 96° (E) 22:56:16 435.910
DX 1 04 Dec 22:52:11 22:55:42 25° 67° (ENE) 22:59:14 434.975-435.025
50 SAT 04 Dec 22:58:12 23:01:27 38° 73° (ENE) 23:04:44 437.505
UKube-1 04 Dec 23:02:23 23:05:49 24° 67° (ENE) 23:09:15 .
TIGRISAT 04 Dec 23:15:35 23:19:18 27° 292° (WNW) 23:22:57 435.000
ANTELSAT 04 Dec 23:16:44 23:20:21 25° 292° (WNW) 23:23:52 437.575/2403.000
SPROUT 04 Dec 23:17:19 23:21:30 54° 73° (ENE) 23:25:43 437.525
ESTCUBE 1 04 Dec 23:19:40 23:23:48 37° 262° (W) 23:27:59 437.505/2401.250
ISS 04 Dec 23:20:29 23:23:47 78° 218° (SW) 23:27:05 145.825
AISAT 04 Dec 23:32:07 23:36:29 62° 259° (W) 23:40:54 437.250
BUGSAT 1 04 Dec 23:32:54 23:35:41 17° 93° (E) 23:38:26 437.445
GONETS M04 04 Dec 23:33:32 23:40:12 25° 81° (E) 23:46:51
NANOSAT C BR1 04 Dec 23:41:12 23:45:25 64° 102° (ESE) 23:49:35 145.865
QB50P2 04 Dec 23:45:34 23:49:50 84° 104° (ESE) 23:54:03 145.880/145.840
POLYITAN 1 04 Dec 23:46:08 23:50:24 80° 102° (ESE) 23:54:37 437.675
QB50P1 04 Dec 23:59:42 00:03:57 72° 285° (WNW) 00:08:09 145.935-145.965
CUBEBUG 1 05 Dec 00:03:29 00:06:46 21° 266° (W) 00:10:04 437.445
DUCHIFAT 1 05 Dec 00:04:12 00:08:25 75° 284° (WNW) 00:12:36 145.980
Cosmos 2499 05 Dec 00:06:53 00:14:51 47° 88° (E) 00:23:09 435.465 / 435.565
VELOX 1 05 Dec 00:10:01 00:13:41 26° 264° (W) 00:17:24 145.980
POPSAT HIP 1 05 Dec 00:21:16 00:25:17 42° 288° (WNW) 00:29:15 437.405
DX 1 05 Dec 00:27:58 00:31:45 29° 263° (W) 00:35:34 434.975-435.025
PHONESAT 2.4 05 Dec 00:29:22 00:31:16 17° 153° (SSE) 00:33:10 2401.200-2431.200
ITUPSAT 1 05 Dec 00:29:41 00:31:46 13° 61° (ENE) 00:33:49 437.325
AUBIESAT-1 05 Dec 00:29:53 00:32:37 17° 58° (ENE) 00:35:27 437.475
JAS-2 05 Dec 00:32:15 00:36:51 33° 292° (WNW) 00:41:34 435.910
50 SAT 05 Dec 00:33:38 00:34:56 12° 268° (W) 00:36:14 437.505
UKube-1 05 Dec 00:37:54 00:41:42 30° 263° (W) 00:45:31 .
M-CUBED/EXP-1 PRIME 05 Dec 00:40:03 00:43:27 26° 62° (ENE) 00:47:04 437.505
Gurwin Techsat 1B 05 Dec 00:43:24 00:45:32 12° 89° (E) 00:47:41 435.225
TISAT 1 05 Dec 00:44:15 00:48:29 84° 76° (ENE) 00:52:46 437.305
AO-85 05 Dec 00:49:13 00:50:28 11° 108° (ESE) 00:51:42 145.980
SPROUT 05 Dec 00:55:46 00:57:44 13° 269° (W) 00:59:43 437.525
Oscar 19 05 Dec 00:56:38 01:01:20 34° 97° (E) 01:06:01 437.125/150
BUGSAT 1 05 Dec 01:07:17 01:11:12 38° 289° (WNW) 01:15:02 437.445
NANOSAT C BR1 05 Dec 01:19:03 01:20:34 12° 298° (WNW) 01:22:05 145.865
GONETS M04 05 Dec 01:27:34 01:36:13 67° 280° (W) 01:44:55
SWISSCUBE 05 Dec 01:33:18 01:38:00 61° 73° (ENE) 01:42:43 437.505
BEESAT 05 Dec 01:37:30 01:42:11 60° 73° (ENE) 01:46:54 436.000
O/OREOS (USA 219) 05 Dec 01:41:36 01:45:57 47° 64° (ENE) 01:50:15 437.305
Cosmos 2499 05 Dec 02:00:11 02:08:03 40° 288° (WNW) 02:16:17 435.465 / 435.565
KKS-1 05 Dec 02:02:33 02:03:40 11° 60° (ENE) 02:04:47 437.445
AUBIESAT-1 05 Dec 02:02:40 02:06:35 47° 256° (WSW) 02:10:48 437.475
PHONESAT 2.4 05 Dec 02:03:35 02:06:14 64° 168° (SSE) 02:08:52 2401.200-2431.200
ITUPSAT 1 05 Dec 02:04:10 02:08:57 75° 258° (WSW) 02:13:45 437.325
M-CUBED/EXP-1 PRIME 05 Dec 02:14:18 02:17:48 28° 260° (W) 02:21:33 437.505
Gurwin Techsat 1B 05 Dec 02:20:44 02:26:04 79° 286° (WNW) 02:31:23 435.225
AO-85 05 Dec 02:25:23 02:30:22 87° 305° (NW) 02:34:58 145.980
Oscar 19 05 Dec 02:36:06 02:40:33 30° 293° (WNW) 02:44:59 437.125/150
AO-7 05 Dec 02:53:11 03:00:35 33° 97° (E) 03:07:55 29.400- 29.500
MOZHAYETS 4 05 Dec 02:55:26 03:00:01 88° 76° (ENE) 03:04:37
CUBESAT XI-V 05 Dec 02:57:14 02:59:29 14° 63° (ENE) 03:01:45 437.345
ITAMSAT 1 05 Dec 03:00:57 03:06:04 57° 101° (E) 03:11:09 435.822/435.867
SWISSCUBE 05 Dec 03:13:45 03:16:10 14° 269° (W) 03:18:36 437.505
BEESAT 05 Dec 03:17:52 03:20:21 14° 269° (W) 03:22:50 436.000
O/OREOS (USA 219) 05 Dec 03:22:15 03:24:54 16° 261° (W) 03:27:33 437.305
GONETS M04 05 Dec 03:31:23 03:34:56 13° 303° (WNW) 03:38:29
KKS-1 05 Dec 03:35:05 03:39:33 79° 258° (WSW) 03:44:03 437.445
SO-50 05 Dec 03:35:07 03:37:27 14° 38° (NE) 03:39:46 436.795
PHONESAT 2.4 05 Dec 03:38:48 03:41:27 84° 188° (S) 03:44:06 2401.200-2431.200
STARS 05 Dec 03:44:42 03:49:03 61° 74° (ENE) 03:53:27 437.465
Gurwin Techsat 1B 05 Dec 04:03:58 04:05:07 11° 303° (WNW) 04:06:16 435.225
AO-85 05 Dec 04:08:56 04:11:22 14° 319° (NW) 04:13:44 145.980
BEESAT 3 05 Dec 04:21:10 04:23:53 18° 111° (ESE) 04:26:38 437.485
CUBESAT XI-V 05 Dec 04:31:46 04:36:19 63° 259° (W) 04:40:53 437.345
HORYU 2 05 Dec 04:41:34 04:45:04 22° 95° (E) 04:48:32 437.375
ITAMSAT 1 05 Dec 04:41:35 04:45:04 19° 298° (WNW) 04:48:33 435.822/435.867
AO-7 05 Dec 04:45:31 04:53:37 55° 295° (WNW) 05:01:41 29.400- 29.500
BEESAT 2 05 Dec 04:47:55 04:50:23 16° 110° (ESE) 04:52:53 435.950
NOAA 15 05 Dec 04:55:42 04:56:59 11° 89° (E) 04:58:15 137.62
GOMX 1 05 Dec 04:59:41 05:04:06 25° 93° (E) 05:08:31 467.674
YUBILEINY 05 Dec 05:05:00 05:12:28 29° 68° (ENE) 05:19:53 435.215
Cosmos 2504 05 Dec 05:05:18 05:09:25 14° 57° (ENE) 05:13:27 435.465 / 435.565
SO-50 05 Dec 05:14:03 05:18:36 88° 54° (NE) 05:23:04 436.795
PHONESAT 2.4 05 Dec 05:14:10 05:16:33 30° 201° (SSW) 05:18:57 2401.200-2431.200
BRITE-PL 05 Dec 05:16:43 05:22:09 77° 102° (ESE) 05:27:48 437.365/2234.400
DOVE 4 05 Dec 05:17:33 05:20:29 15° 89° (E) 05:23:22 437.250
STARS 05 Dec 05:24:01 05:25:47 12° 269° (W) 05:27:33 437.465
Cosmos 2491 05 Dec 05:34:11 05:40:15 21° 79° (E) 05:46:19 435.465 / 435.565
BEESAT 3 05 Dec 05:57:36 06:01:14 37° 308° (NW) 06:04:56 437.485
STRAND 1 05 Dec 06:02:38 06:07:29 43° 70° (ENE) 06:12:20 437.568
NOAA 18 05 Dec 06:05:04 06:09:54 30° 96° (E) 06:14:41 137.9125
CUTE-I 05 Dec 06:05:32 06:10:43 49° 100° (E) 06:15:49 437.470
LilacSat-2 05 Dec 06:09:18 06:13:03 62° 101° (E) 06:16:45 437.200
HORYU 2 05 Dec 06:17:41 06:21:38 32° 291° (WNW) 06:25:34 437.375
BEESAT 2 05 Dec 06:24:04 06:27:50 42° 307° (NW) 06:31:38 435.950
RS-15 05 Dec 06:25:20 06:35:32 37° 105° (ESE) 06:46:08 29.354- 29.394
HO-68 05 Dec 06:27:33 06:31:49 16° 90° (E) 06:36:04 435.675
Cubesat XI-IV 05 Dec 06:31:00 06:36:23 83° 103° (ESE) 06:41:42 437.490
NOAA 15 05 Dec 06:32:06 06:37:24 87° 284° (WNW) 06:42:41 137.62
AIST 1 05 Dec 06:36:37 06:40:51 43° 78° (ENE) 06:45:02
GOMX 1 05 Dec 06:37:07 06:42:17 45° 289° (WNW) 06:47:28 467.674
AO-7 05 Dec 06:41:20 06:44:32 13° 316° (NW) 06:47:45 29.400- 29.500
CINEMA 3 05 Dec 06:43:41 06:47:37 25° 93° (E) 06:51:26 145.822/145.860
DOVE 4 05 Dec 06:53:21 06:58:39 68° 285° (WNW) 07:03:46 437.250
Cosmos 2504 05 Dec 06:55:53 07:04:43 68° 79° (E) 07:13:01 435.465 / 435.565
BRITE-PL 05 Dec 06:56:56 07:00:01 16° 297° (WNW) 07:03:09 437.365/2234.400
YUBILEINY 05 Dec 07:01:09 07:09:48 62° 268° (W) 07:18:26 435.215
AIST 2 05 Dec 07:05:59 07:07:38 12° 108° (ESE) 07:09:18 435.215
CUTE 1.7 + AOD 2 05 Dec 07:10:29 07:14:02 26° 95° (E) 07:17:35 437.475
CUBEBUG 2 05 Dec 07:11:50 07:12:30 10° 88° (E) 07:13:09 437.445
Cosmos 2491 05 Dec 07:27:15 07:36:03 78° 278° (W) 07:44:52 435.465 / 435.565
CANX-2 05 Dec 07:27:51 07:31:57 48° 99° (E) 07:36:01 2200.000
AAUSAT CUBESAT 2 05 Dec 07:39:49 07:42:49 19° 93° (E) 07:45:48 437.432
STRAND 1 05 Dec 07:42:53 07:46:49 22° 266° (W) 07:50:46 437.568
NOAA 18 05 Dec 07:45:32 07:50:34 36° 293° (WNW) 07:55:33 137.9125
CUTE-I 05 Dec 07:46:23 07:50:24 22° 296° (WNW) 07:54:24 437.470
PRISM 05 Dec 07:53:43 07:57:27 36° 71° (ENE) 08:01:13 437.425
UWE-3 05 Dec 07:54:23 07:57:36 20° 93° (E) 08:00:45 435.000/436.395/437.385
SEEDS 05 Dec 07:55:33 07:59:42 58° 100° (E) 08:03:48 437.485
COMPASS 1 05 Dec 08:08:06 08:12:11 53° 100° (E) 08:16:14 437.405
UNISAT 6 05 Dec 08:08:25 08:10:47 14° 63° (ENE) 08:13:07 437.425
HO-68 05 Dec 08:13:05 08:20:21 86° 287° (WNW) 08:27:34 435.675
Cubesat XI-IV 05 Dec 08:13:08 08:15:43 14° 301° (WNW) 08:18:17 437.490
NOAA 15 05 Dec 08:14:31 08:16:21 12° 302° (WNW) 08:18:11 137.62
AIST 1 05 Dec 08:15:27 08:18:02 15° 274° (W) 08:20:36
CINEMA 3 05 Dec 08:20:27 08:24:47 33° 291° (WNW) 08:28:56 145.822/145.860
RS-15 05 Dec 08:35:28 08:47:12 68° 308° (NW) 08:59:33 29.354- 29.394
TIGRISAT 05 Dec 08:37:05 08:40:52 25° 68° (ENE) 08:44:38 435.000
ZACube-1 05 Dec 08:37:22 08:41:18 36° 97° (E) 08:45:09 437.345
ANTELSAT 05 Dec 08:38:07 08:42:02 27° 68° (ENE) 08:45:55 437.575/2403.000
AIST 2 05 Dec 08:41:31 08:45:34 60° 305° (NW) 08:49:42 435.215
CUBEBUG 2 05 Dec 08:45:13 08:49:37 66° 286° (WNW) 08:53:51 437.445
FUNcube-1 05 Dec 08:45:38 08:49:38 41° 98° (E) 08:53:34 145.935
CUTE 1.7 + AOD 2 05 Dec 08:46:19 08:49:47 25° 291° (WNW) 08:53:15 437.475
DELFI C3 05 Dec 08:48:16 08:50:29 14° 92° (E) 08:52:42 145.870
Cosmos 2504 05 Dec 08:50:31 08:57:14 26° 280° (W) 09:03:43 435.465 / 435.565
JAS-2 05 Dec 09:01:31 09:04:41 14° 61° (ENE) 09:07:41 435.910
CANX-2 05 Dec 09:05:02 09:07:23 15° 295° (WNW) 09:09:44 2200.000
AAUSAT CUBESAT 2 05 Dec 09:14:38 09:18:21 33° 289° (WNW) 09:22:04 437.432
Oscar 11 05 Dec 09:17:25 09:21:43 86° 286° (WNW) 09:26:02 145.826/435.025
Cosmos 2491 05 Dec 09:29:34 09:34:27 16° 300° (WNW) 09:39:22 435.465 / 435.565
PRISM 05 Dec 09:30:12 09:32:52 17° 266° (W) 09:35:34 437.425
UWE-3 05 Dec 09:30:16 09:34:09 33° 290° (WNW) 09:37:55 435.000/436.395/437.385
SEEDS 05 Dec 09:33:08 09:34:53 12° 296° (WNW) 09:36:37 437.485
POPSAT HIP 1 05 Dec 09:39:48 09:41:43 13° 63° (ENE) 09:43:37 437.405
UNISAT 6 05 Dec 09:42:16 09:46:55 66° 259° (WSW) 09:51:35 437.425
GONETS M04 05 Dec 09:45:14 09:47:49 11° 56° (NE) 09:50:22
COMPASS 1 05 Dec 09:45:17 09:47:16 13° 296° (WNW) 09:49:15 437.405
Cosmos 2499 05 Dec 10:00:20 10:05:22 16° 59° (ENE) 10:10:13 435.465 / 435.565
HO-68 05 Dec 10:02:38 10:07:03 18° 306° (NW) 10:11:27 435.675
CUSAT 1 05 Dec 10:03:15 10:06:10 29° 281° (WNW) 10:08:41 437.405
TIGRISAT 05 Dec 10:13:06 10:17:22 34° 263° (W) 10:21:37 435.000
HUMSAT D 05 Dec 10:13:54 10:17:59 77° 102° (ESE) 10:22:03 437.325/437.525
ZACube-1 05 Dec 10:14:21 10:17:18 19° 294° (WNW) 10:20:13 437.345
ANTELSAT 05 Dec 10:14:27 10:18:36 31° 264° (W) 10:22:45 437.575/2403.000
DELFI C3 05 Dec 10:21:44 10:25:29 40° 287° (WNW) 10:29:13 145.870
FUNcube-1 05 Dec 10:22:53 10:25:32 16° 295° (WNW) 10:28:10 145.935
BUGSAT 1 05 Dec 10:23:16 10:25:10 13° 63° (ENE) 10:27:05 437.445
PCSat 05 Dec 10:31:51 10:35:47 21° 106° (ESE) 10:39:43 145.827
NANOSAT C BR1 05 Dec 10:32:39 10:36:42 44° 72° (ENE) 10:40:47 145.865
QB50P2 05 Dec 10:37:24 10:41:36 58° 74° (ENE) 10:45:50 145.880/145.840
DANDE 05 Dec 10:37:41 10:42:34 64° 280° (W) 10:46:13 436.750
POLYITAN 1 05 Dec 10:37:58 10:42:09 56° 74° (ENE) 10:46:23 437.675
JAS-2 05 Dec 10:42:30 10:49:09 89° 256° (WSW) 10:55:01 435.910
QB50P1 05 Dec 10:51:14 10:55:31 79° 75° (ENE) 10:59:48 145.935-145.965
RS-15 05 Dec 10:52:49 11:02:41 28° 337° (NNW) 11:12:46 29.354- 29.394
DUCHIFAT 1 05 Dec 10:55:09 10:59:23 74° 75° (ENE) 11:03:38 145.980
AO-85 05 Dec 10:57:34 11:01:32 69° 56° (ENE) 11:05:23 145.980
ESTCUBE 1 05 Dec 11:11:56 11:16:16 44° 99° (E) 11:20:35 437.505/2401.250
POPSAT HIP 1 05 Dec 11:12:44 11:16:57 60° 259° (W) 11:21:13 437.405
AISAT 05 Dec 11:22:52 11:26:34 25° 95° (E) 11:30:14 437.250
GONETS M04 05 Dec 11:38:03 11:46:42 62° 78° (ENE) 11:55:19
CUBEBUG 1 05 Dec 11:50:49 11:55:16 73° 101° (ESE) 11:59:41 437.445
Cosmos 2499 05 Dec 11:51:23 12:00:05 80° 82° (E) 12:08:07 435.465 / 435.565
BUGSAT 1 05 Dec 11:55:51 12:00:01 59° 260° (W) 12:04:13 437.445
50 SAT 05 Dec 11:57:26 12:00:53 46° 100° (E) 12:04:19 437.505
VELOX 1 05 Dec 11:59:18 12:03:43 59° 101° (E) 12:08:07 145.980
Gurwin Techsat 1B 05 Dec 12:03:25 12:07:19 21° 63° (ENE) 12:11:14 435.225
AO-7 05 Dec 12:08:42 12:08:50 10° 41° (NE) 12:08:59 29.400- 29.500
NANOSAT C BR1 05 Dec 12:10:05 12:12:37 15° 268° (W) 12:15:11 145.865
Oscar 19 05 Dec 12:13:05 12:17:58 47° 71° (ENE) 12:22:55 437.125/150
PCSat 05 Dec 12:13:27 12:18:44 54° 303° (WNW) 12:24:04 145.827
DX 1 05 Dec 12:15:40 12:19:55 46° 100° (E) 12:24:07 434.975-435.025
QB50P2 05 Dec 12:16:11 12:17:44 12° 270° (W) 12:19:19 145.880/145.840
POLYITAN 1 05 Dec 12:16:27 12:18:17 12° 269° (W) 12:20:06 437.675
UKube-1 05 Dec 12:24:35 12:28:44 42° 99° (E) 12:32:50 .
TISAT 1 05 Dec 12:30:08 12:32:06 13° 91° (E) 12:34:03 437.305
JAS-2 05 Dec 12:32:13 12:34:43 12° 270° (W) 12:37:08 435.910
BEESAT 3 05 Dec 12:38:16 12:40:17 13° 42° (NE) 12:42:17 437.485
SPROUT 05 Dec 12:39:01 12:43:19 74° 285° (WNW) 12:47:35 437.525
ITAMSAT 1 05 Dec 12:43:30 12:45:05 11° 58° (ENE) 12:46:39 435.822/435.867
